Schneifelwetter: Wetterstation Hallschlag, 537 m . NN
Wetterdaten: Sonntag, 27.11.2011
Datum Zeit Temp. A. Feuchte A. Luftdruck Regen Wind Richtung Richtung Sonnenschein Helligkeit T Regen Taupunkt Windchill
27.11.2011 00:00 2,9 C 98 % 1023 hPa 0,0 l/m 28,5 km/h (4 Bft) W-SW45 245 0 min 0 lux 0 min 2,6 C -8,9 C
27.11.2011 00:15 2,9 C 98 % 1023 hPa 0,0 l/m 29,6 km/h (5 Bft) SW45 230 0 min 0 lux 0 min 2,6 C -9,2 C
27.11.2011 00:30 2,9 C 98 % 1023 hPa 0,0 l/m 28,8 km/h (4 Bft) W-SW45 240 0 min 0 lux 0 min 2,6 C -9,0 C
27.11.2011 00:45 2,9 C 98 % 1023 hPa 0,0 l/m 35,5 km/h (5 Bft) W-SW45 240 0 min 0 lux 0 min 2,6 C -10,7 C
27.11.2011 01:00 2,9 C 99 % 1022 hPa 0,0 l/m 32,8 km/h (5 Bft) W-SW67.5 240 0 min 0 lux 0 min 2,8 C -10,1 C
27.11.2011 01:15 2,9 C 99 % 1022 hPa 0,0 l/m 29,9 km/h (5 Bft) W-SW67.5 245 0 min 0 lux 0 min 2,8 C -9,3 C
27.11.2011 01:30 2,9 C 99 % 1022 hPa 0,0 l/m 36,5 km/h (5 Bft) W-SW45 250 0 min 0 lux 0 min 2,8 C -10,9 C
27.11.2011 01:45 3,0 C 99 % 1022 hPa 0,0 l/m 34,9 km/h (5 Bft) W-SW45 245 0 min 0 lux 0 min 2,9 C -10,4 C
27.11.2011 02:00 3,0 C 99 % 1022 hPa 0,0 l/m 41,3 km/h (6 Bft) W-SW22.5 255 0 min 0 lux 0 min 2,9 C -11,7 C
27.11.2011 02:15 2,9 C 99 % 1022 hPa 0,0 l/m 40,9 km/h (6 Bft) W-SW45 240 0 min 0 lux 0 min 2,8 C -11,8 C
27.11.2011 02:30 2,9 C 99 % 1021 hPa 0,0 l/m 39,1 km/h (6 Bft) W-SW45 245 0 min 0 lux 0 min 2,8 C -11,5 C
27.11.2011 02:45 2,9 C 99 % 1021 hPa 0,0 l/m 44,8 km/h (6 Bft) W-SW67.5 250 0 min 0 lux 0 min 2,8 C -12,5 C
27.11.2011 03:00 2,9 C 99 % 1021 hPa 0,0 l/m 43,3 km/h (6 Bft) W-SW22.5 255 0 min 0 lux 0 min 2,8 C -12,2 C
27.11.2011 03:15 2,8 C 99 % 1021 hPa 0,0 l/m 44,7 km/h (6 Bft) W-SW67.5 250 0 min 0 lux 0 min 2,7 C -12,6 C
27.11.2011 03:30 2,9 C 99 % 1021 hPa 0,0 l/m 41,0 km/h (6 Bft) W-SW45 250 0 min 0 lux 0 min 2,8 C -11,8 C
27.11.2011 03:45 2,9 C 99 % 1021 hPa 0,0 l/m 41,2 km/h (6 Bft) W-SW22.5 255 0 min 0 lux 0 min 2,8 C -11,9 C
27.11.2011 04:00 2,9 C 99 % 1020 hPa 0,0 l/m 46,7 km/h (6 Bft) W-SW67.5 245 0 min 0 lux 0 min 2,8 C -12,8 C
27.11.2011 04:15 2,9 C 99 % 1020 hPa 0,0 l/m 43,4 km/h (6 Bft) W-SW45 250 0 min 0 lux 0 min 2,8 C -12,2 C
27.11.2011 04:30 2,9 C 99 % 1020 hPa 0,0 l/m 38,0 km/h (5 Bft) W-SW67.5 240 0 min 0 lux 0 min 2,8 C -11,2 C
27.11.2011 04:46 2,9 C 99 % 1020 hPa 0,0 l/m 39,1 km/h (6 Bft) W-SW67.5 240 0 min 0 lux 0 min 2,8 C -11,5 C
27.11.2011 05:01 2,9 C 99 % 1020 hPa 0,0 l/m 39,1 km/h (6 Bft) SW45 225 0 min 0 lux 0 min 2,8 C -11,5 C
27.11.2011 05:16 3,0 C 99 % 1020 hPa 0,0 l/m 37,3 km/h (5 Bft) W-SW45 250 0 min 0 lux 0 min 2,9 C -10,9 C
27.11.2011 05:31 3,0 C 99 % 1020 hPa 0,0 l/m 42,7 km/h (6 Bft) W-SW45 240 0 min 0 lux 0 min 2,9 C -12,0 C
27.11.2011 05:46 3,0 C 99 % 1019 hPa 0,0 l/m 42,5 km/h (6 Bft) W-SW67.5 245 0 min 0 lux 0 min 2,9 C -11,9 C
27.11.2011 06:01 3,0 C 99 % 1019 hPa 0,0 l/m 48,4 km/h (6 Bft) W-SW22.5 255 0 min 0 lux 0 min 2,9 C -12,8 C
27.11.2011 06:16 2,9 C 99 % 1019 hPa 0,0 l/m 48,4 km/h (6 Bft) W-SW45 240 0 min 0 lux 0 min 2,8 C -13,0 C
27.11.2011 06:31 2,9 C 99 % 1019 hPa 0,0 l/m 52,0 km/h (7 Bft) W-SW45 250 0 min 0 lux 0 min 2,8 C -13,5 C
27.11.2011 06:46 2,9 C 99 % 1019 hPa 0,0 l/m 42,1 km/h (6 Bft) W-SW45 245 0 min 0 lux 0 min 2,8 C -12,0 C
27.11.2011 07:01 2,9 C 98 % 1019 hPa 0,0 l/m 46,7 km/h (6 Bft) W-SW45 250 0 min 0 lux 0 min 2,6 C -12,8 C
27.11.2011 07:16 2,9 C 98 % 1019 hPa 0,0 l/m 42,2 km/h (6 Bft) W-SW22.5 250 0 min 0 lux 0 min 2,6 C -12,0 C
27.11.2011 07:31 2,9 C 98 % 1019 hPa 0,0 l/m 38,6 km/h (5 Bft) W-SW45 255 0 min 0 lux 0 min 2,6 C -11,4 C
27.11.2011 07:46 3,0 C 98 % 1019 hPa 0,0 l/m 46,0 km/h (6 Bft) W-SW45 255 0 min 0 lux 0 min 2,7 C -12,5 C
27.11.2011 08:01 3,0 C 98 % 1019 hPa 0,0 l/m 49,5 km/h (6 Bft) W22.5 260 0 min 128 lux 0 min 2,7 C -13,0 C
27.11.2011 08:16 2,9 C 97 % 1019 hPa 0,0 l/m 54,0 km/h (7 Bft) W45 260 0 min 379 lux 0 min 2,5 C -13,7 C
27.11.2011 08:31 2,9 C 97 % 1019 hPa 0,0 l/m 45,7 km/h (6 Bft) W-SW45 250 0 min 1,09 klux 0 min 2,5 C -12,6 C
27.11.2011 08:46 3,1 C 97 % 1019 hPa 0,0 l/m 53,4 km/h (7 Bft) W-SW45 255 0 min 1,64 klux 0 min 2,7 C -13,3 C
27.11.2011 09:01 3,2 C 96 % 1019 hPa 0,0 l/m 54,7 km/h (7 Bft) W-SW45 250 0 min 2,33 klux 0 min 2,6 C -13,3 C
27.11.2011 09:16 3,3 C 96 % 1019 hPa 0,0 l/m 49,0 km/h (6 Bft) W-SW45 250 0 min 3,58 klux 0 min 2,7 C -12,5 C
27.11.2011 09:31 3,4 C 96 % 1019 hPa 0,0 l/m 45,8 km/h (6 Bft) W-SW45 250 0 min 4,67 klux 0 min 2,8 C -11,9 C
27.11.2011 09:46 3,5 C 96 % 1019 hPa 0,0 l/m 43,8 km/h (6 Bft) W-SW45 250 0 min 4,01 klux 0 min 2,9 C -11,4 C
27.11.2011 10:01 3,5 C 96 % 1019 hPa 0,0 l/m 47,4 km/h (6 Bft) W45 260 0 min 4,33 klux 0 min 2,9 C -11,9 C
27.11.2011 10:16 3,6 C 96 % 1019 hPa 0,0 l/m 41,1 km/h (6 Bft) W45 260 0 min 3,13 klux 0 min 3,0 C -10,8 C
27.11.2011 10:31 3,7 C 96 % 1019 hPa 0,0 l/m 39,0 km/h (6 Bft) W-SW45 250 0 min 3,72 klux 0 min 3,1 C -10,3 C
27.11.2011 10:45 3,8 C 96 % 1019 hPa 0,0 l/m 41,1 km/h (6 Bft) W22.5 260 0 min 3,19 klux 0 min 3,2 C -10,5 C
27.11.2011 11:00 3,9 C 96 % 1019 hPa 0,0 l/m 39,6 km/h (6 Bft) W-SW45 240 0 min 2,98 klux 0 min 3,3 C -10,1 C
27.11.2011 11:16 3,9 C 96 % 1019 hPa 0,0 l/m 39,4 km/h (6 Bft) W-SW45 250 0 min 3,85 klux 0 min 3,3 C -10,0 C
27.11.2011 11:31 4,0 C 97 % 1019 hPa 0,0 l/m 38,1 km/h (5 Bft) W-SW22.5 255 0 min 4,58 klux 0 min 3,6 C -9,6 C
27.11.2011 11:45 4,2 C 97 % 1019 hPa 0,0 l/m 35,1 km/h (5 Bft) W-SW45 240 0 min 5,68 klux 0 min 3,8 C -8,7 C
27.11.2011 12:00 4,4 C 98 % 1018 hPa 0,0 l/m 38,2 km/h (5 Bft) W-SW45 240 0 min 6,38 klux 0 min 4,1 C -9,1 C
27.11.2011 12:15 4,6 C 98 % 1018 hPa 0,0 l/m 40,4 km/h (6 Bft) W-SW22.5 245 0 min 7,76 klux 0 min 4,3 C -9,2 C
27.11.2011 12:30 4,7 C 98 % 1018 hPa 0,0 l/m 41,1 km/h (6 Bft) W-SW45 245 0 min 5,99 klux 0 min 4,4 C -9,2 C
27.11.2011 12:46 4,7 C 98 % 1018 hPa 0,0 l/m 32,1 km/h (5 Bft) W-SW67.5 250 0 min 5,23 klux 0 min 4,4 C -7,3 C
27.11.2011 13:01 4,8 C 99 % 1018 hPa 0,0 l/m 32,3 km/h (5 Bft) SW67.5 235 0 min 3,00 klux 0 min 4,7 C -7,2 C
27.11.2011 13:00 4,8 C 99 % 1018 hPa 0,0 l/m 32,3 km/h (5 Bft) SW67.5 235 0 min 3,00 klux 0 min 4,7 C -7,2 C
27.11.2011 13:15 4,9 C 99 % 1018 hPa 0,0 l/m 34,5 km/h (5 Bft) SW67.5 230 0 min 3,20 klux 0 min 4,8 C -7,6 C
27.11.2011 13:30 5,2 C 99 % 1018 hPa 0,0 l/m 34,1 km/h (5 Bft) W-SW45 250 0 min 2,70 klux 0 min 5,1 C -7,1 C
27.11.2011 13:46 5,4 C 99 % 1018 hPa 0,3 l/m 30,6 km/h (5 Bft) SW45 230 0 min 3,95 klux 16 min 5,3 C -6,0 C
27.11.2011 14:01 5,5 C 99 % 1018 hPa 0,0 l/m 35,3 km/h (5 Bft) W-SW22.5 245 0 min 4,01 klux 0 min 5,4 C -6,9 C
27.11.2011 14:15 5,6 C 99 % 1018 hPa 0,0 l/m 30,1 km/h (5 Bft) SW67.5 230 0 min 3,01 klux 0 min 5,5 C -5,6 C
27.11.2011 14:30 5,7 C 99 % 1018 hPa 0,0 l/m 38,3 km/h (5 Bft) W-SW45 245 0 min 5,05 klux 0 min 5,6 C -7,2 C
27.11.2011 14:45 6,0 C 99 % 1018 hPa 0,0 l/m 38,1 km/h (5 Bft) W-SW45 255 0 min 7,69 klux 0 min 5,9 C -6,7 C
27.11.2011 15:00 6,2 C 99 % 1018 hPa 0,3 l/m 45,2 km/h (6 Bft) W-SW22.5 250 0 min 7,64 klux 15 min 6,1 C -7,5 C
27.11.2011 15:16 6,2 C 99 % 1018 hPa 0,3 l/m 34,9 km/h (5 Bft) W45 260 0 min 3,54 klux 16 min 6,1 C -5,8 C
27.11.2011 15:31 6,2 C 99 % 1018 hPa 0,3 l/m 33,4 km/h (5 Bft) W45 260 0 min 2,34 klux 15 min 6,1 C -5,5 C
27.11.2011 15:45 6,2 C 99 % 1018 hPa 0,3 l/m 27,6 km/h (4 Bft) W-SW45 250 0 min 1,48 klux 14 min 6,1 C -4,1 C
27.11.2011 16:00 6,2 C 99 % 1019 hPa 0,0 l/m 27,3 km/h (4 Bft) W-SW22.5 255 0 min 710 lux 0 min 6,1 C -4,0 C
27.11.2011 16:15 6,4 C 99 % 1019 hPa 0,0 l/m 29,4 km/h (5 Bft) W22.5 265 0 min 362 lux 0 min 6,3 C -4,3 C
27.11.2011 16:30 6,5 C 99 % 1019 hPa 0,0 l/m 29,8 km/h (5 Bft) W22.5 265 0 min 197 lux 0 min 6,4 C -4,2 C
27.11.2011 16:46 7,0 C 99 % 1019 hPa 0,0 l/m 35,7 km/h (5 Bft) W45 265 0 min 163 lux 0 min 6,9 C -4,8 C
27.11.2011 17:01 7,2 C 99 % 1019 hPa 0,3 l/m 28,1 km/h (4 Bft) W-SW45 255 0 min 91 lux 15 min 7,1 C -2,8 C
27.11.2011 17:15 7,2 C 99 % 1020 hPa 0,0 l/m 29,7 km/h (5 Bft) W45 265 0 min 13 lux 0 min 7,1 C -3,2 C
27.11.2011 17:30 7,2 C 99 % 1020 hPa 0,0 l/m 32,6 km/h (5 Bft) W22.5 265 0 min 0 lux 0 min 7,1 C -3,9 C
27.11.2011 17:45 7,2 C 99 % 1020 hPa 0,0 l/m 31,3 km/h (5 Bft) W22.5 265 0 min 0 lux 0 min 7,1 C -3,6 C
27.11.2011 18:00 7,2 C 99 % 1020 hPa 0,0 l/m 18,9 km/h (3 Bft) W-SW45 250 0 min 0 lux 0 min 7,1 C 0,1 C
27.11.2011 18:16 7,2 C 99 % 1020 hPa 0,0 l/m 18,7 km/h (3 Bft) W67.5 265 0 min 0 lux 0 min 7,1 C 0,2 C
27.11.2011 18:31 7,2 C 99 % 1021 hPa 0,0 l/m 21,5 km/h (4 Bft) W-SW22.5 255 0 min 0 lux 0 min 7,1 C -0,9 C
27.11.2011 18:45 7,2 C 99 % 1021 hPa 0,0 l/m 23,8 km/h (4 Bft) W22.5 260 0 min 0 lux 0 min 7,1 C -1,6 C
27.11.2011 19:00 6,8 C 96 % 1021 hPa 0,0 l/m 25,1 km/h (4 Bft) W-NW67.5 285 0 min 0 lux 0 min 6,2 C -2,5 C
27.11.2011 19:15 6,4 C 95 % 1022 hPa 0,0 l/m 11,4 km/h (2 Bft) W-NW67.5 285 0 min 0 lux 0 min 5,7 C 2,7 C
27.11.2011 19:30 6,0 C 95 % 1022 hPa 0,0 l/m 6,3 km/h (2 Bft) W-NW22.5 285 0 min 0 lux 0 min 5,3 C 6,0 C
27.11.2011 19:46 5,2 C 95 % 1022 hPa 0,0 l/m 4,9 km/h (1 Bft) W-NW 290 0 min 0 lux 0 min 4,5 C 5,2 C
27.11.2011 20:01 4,5 C 96 % 1023 hPa 0,0 l/m 12,7 km/h (3 Bft) W22.5 260 0 min 0 lux 0 min 3,9 C -0,2 C
27.11.2011 20:15 4,1 C 96 % 1023 hPa 0,0 l/m 14,3 km/h (3 Bft) W22.5 265 0 min 0 lux 0 min 3,5 C -1,6 C
27.11.2011 20:30 3,9 C 96 % 1023 hPa 0,0 l/m 14,5 km/h (3 Bft) W22.5 270 0 min 0 lux 0 min 3,3 C -2,0 C
27.11.2011 20:45 3,4 C 96 % 1023 hPa 0,0 l/m 7,2 km/h (2 Bft) W 270 0 min 0 lux 0 min 2,8 C 2,7 C
27.11.2011 21:00 3,1 C 96 % 1023 hPa 0,0 l/m 4,9 km/h (1 Bft) W 270 0 min 0 lux 0 min 2,5 C 3,1 C
27.11.2011 21:16 2,9 C 97 % 1024 hPa 0,0 l/m 8,9 km/h (2 Bft) W22.5 260 0 min 0 lux 0 min 2,5 C 0,6 C
27.11.2011 21:31 2,7 C 97 % 1024 hPa 0,0 l/m 7,4 km/h (2 Bft) W 260 0 min 0 lux 0 min 2,3 C 1,7 C
27.11.2011 21:45 2,4 C 97 % 1024 hPa 0,0 l/m 5,7 km/h (1 Bft) W 270 0 min 0 lux 0 min 2,0 C 2,4 C
27.11.2011 22:00 2,3 C 97 % 1024 hPa 0,0 l/m 6,9 km/h (2 Bft) W 270 0 min 0 lux 0 min 1,9 C 1,8 C
27.11.2011 22:15 2,3 C 97 % 1024 hPa 0,0 l/m 8,1 km/h (2 Bft) W 270 0 min 0 lux 0 min 1,9 C 0,7 C
27.11.2011 22:30 2,0 C 97 % 1024 hPa 0,0 l/m 8,2 km/h (2 Bft) W 270 0 min 0 lux 0 min 1,6 C 0,3 C
27.11.2011 22:46 1,4 C 97 % 1024 hPa 0,0 l/m 3,6 km/h (1 Bft) W 270 0 min 0 lux 0 min 1,0 C 1,4 C
27.11.2011 23:01 0,9 C 97 % 1025 hPa 0,0 l/m 3,3 km/h (1 Bft) W 270 0 min 0 lux 0 min 0,5 C 0,9 C
27.11.2011 23:15 0,6 C 97 % 1025 hPa 0,0 l/m 0,0 km/h (0 Bft) W 270 0 min 0 lux 0 min 0,2 C 0,6 C
27.11.2011 23:30 0,0 C 97 % 1025 hPa 0,0 l/m 0,0 km/h (0 Bft) W 270 0 min 0 lux 0 min -0,4 C 0,0 C
27.11.2011 23:45 -0,6 C 97 % 1025 hPa 0,0 l/m 0,0 km/h (0 Bft) W 270 0 min 0 lux 0 min -1,0 C -0,6 C
_ Min-Zeit 23:45 19:15 12:00 - 23:15 - - - - - 23:45 08:16
Minimum _ -0,6 C 95 % 1018 hPa - 0,0 km/h (0 Bft) - - - - - -1,0 C -13,7 C
_ Max-Zeit 17:01 01:00 23:01 13:46 09:01 - - 00:00 12:15 13:46 17:01 19:30
Maximum _ 7,2 C 99 % 1025 hPa 0,3 l/m 54,7 km/h
W-SW (7 Bft)
- - 0 min 7,76 klux 16 min 7,1 C 6,0 C
Durchschnitt _ 4,0 C 98 % 1021 hPa #1,8 l/m 31,8 km/h (5 Bft) W-SW - #0 min. 1,29 klux #1:31 h 3,7 C -7,0 C